TimeEDT,TemperatureF,Dew PointF,Humidity,Sea Level PressureIn,VisibilityMPH,Wind Direction,Wind SpeedMPH,Gust SpeedMPH,PrecipitationIn,Events,Conditions,WindDirDegrees,DateUTC
12:45 AM,59.0,53.6,82,30.00,10.0,Calm,Calm,-,N/A,,Partly Cloudy,0,2013-06-16 04:45:00
1:45 AM,57.2,51.8,82,30.00,10.0,West,6.9,-,N/A,,Partly Cloudy,280,2013-06-16 05:45:00
3:45 AM,55.4,51.8,88,29.99,10.0,West,5.8,-,N/A,,Partly Cloudy,280,2013-06-16 07:45:00
4:45 AM,57.2,50.0,77,29.98,10.0,West,6.9,-,N/A,,Scattered Clouds,280,2013-06-16 08:45:00
5:45 AM,55.4,51.8,88,29.99,20.0,WNW,5.8,-,N/A,,Mostly Cloudy,300,2013-06-16 09:45:00
6:50 AM,59.0,51.8,77,29.99,20.0,WNW,6.9,-,N/A,,Overcast,300,2013-06-16 10:50:00
7:50 AM,60.8,53.6,77,29.98,20.0,WNW,5.8,-,N/A,,Overcast,290,2013-06-16 11:50:00
8:45 AM,62.6,53.6,72,29.97,20.0,WNW,5.8,-,N/A,,Overcast,290,2013-06-16 12:45:00
11:45 AM,75.2,57.2,53,29.89,20.0,SSW,6.9,-,N/A,,Mostly Cloudy,210,2013-06-16 15:45:00
12:45 PM,75.2,53.6,47,29.87,15.0,WSW,11.5,20.7,N/A,,Overcast,240,2013-06-16 16:45:00
1:45 PM,75.2,57.2,53,29.83,15.0,SSW,6.9,-,N/A,,Overcast,200,2013-06-16 17:45:00
2:45 PM,75.2,59.0,57,29.80,15.0,SSW,9.2,-,N/A,,Mostly Cloudy,210,2013-06-16 18:45:00
3:45 PM,75.2,59.0,57,29.80,15.0,WSW,13.8,-,N/A,,Mostly Cloudy,250,2013-06-16 19:45:00
4:45 PM,77.0,60.8,57,29.78,20.0,WSW,13.8,25.3,N/A,,Mostly Cloudy,250,2013-06-16 20:45:00
5:45 PM,75.2,62.6,65,29.77,20.0,WSW,13.8,-,N/A,,Mostly Cloudy,250,2013-06-16 21:45:00
6:45 PM,75.2,62.6,65,29.77,20.0,West,13.8,-,N/A,,Mostly Cloudy,260,2013-06-16 22:45:00
7:45 PM,73.4,64.4,73,29.79,20.0,WNW,6.9,-,N/A,,Mostly Cloudy,290,2013-06-16 23:45:00
8:45 PM,71.6,64.4,78,29.82,10.0,WNW,6.9,-,N/A,,Scattered Clouds,300,2013-06-17 00:45:00
9:45 PM,69.8,62.6,78,29.85,10.0,WNW,8.1,-,N/A,,Scattered Clouds,290,2013-06-17 01:45:00
10:45 PM,69.8,62.6,78,29.86,10.0,WNW,8.1,-,N/A,,Partly Cloudy,290,2013-06-17 02:45:00
11:45 PM,68.0,62.6,83,29.87,10.0,WNW,8.1,-,N/A,,Partly Cloudy,290,2013-06-17 03:45:00